This is the latest recevied weather packets stored in our database for station/object WC4PEM-6. If no packets are shown the sender has not sent any weather packets the latest 10 day(s).
| Time | Temp. | Humidity | Pressure | Rain* | Wind** | Luminosity | Snow |
|---|---|---|---|---|---|---|---|
| 1777307880 | 28.89° C | 59% | 1016.3 hPa | 0 mm | - | - | - |
| 1777307726 | 28.89° C | 59% | 1016.3 hPa | 0 mm | - | - | - |
| 1777307426 | 28.89° C | 59% | 1016.3 hPa | 0 mm | - | - | - |
| 1777307126 | 28.89° C | 60% | 1016.4 hPa | 0 mm | - | - | - |
| 1777306916 | 28.89° C | 59% | 1016.3 hPa | 0 mm | - | - | - |
| 1777306826 | 28.89° C | 59% | 1016.3 hPa | 0 mm | - | - | - |
| 1777306627 | 29.44° C | 59% | 1016.2 hPa | 0 mm | - | - | - |
| 1777306526 | 29.44° C | 59% | 1016.2 hPa | 0 mm | - | - | - |
| 1777306510 | 28.33° C | 61% | 1016.2 hPa | 0 mm | - | - | - |
| 1777306335 | 29.44° C | 57% | 1016.3 hPa | 0 mm | - | - | - |
| 1777306226 | 29.44° C | 57% | 1016.3 hPa | 0 mm | - | - | - |
| 1777306079 | 29.44° C | 60% | 1016.1 hPa | 0 mm | - | - | - |
| 1777305926 | 29.44° C | 60% | 1016.1 hPa | 0 mm | - | - | - |
| 1777305626 | 29.44° C | 60% | 1016.2 hPa | 0 mm | - | - | - |
| 1777305416 | 28.89° C | 61% | 1016.2 hPa | 0 mm | - | - | - |
| 1777305326 | 28.89° C | 61% | 1016.2 hPa | 0 mm | - | - | - |
| 1777305151 | 28.33° C | 62% | 1016.2 hPa | 0 mm | - | - | - |
| 1777305026 | 28.33° C | 62% | 1016.2 hPa | 0 mm | - | - | - |
| 1777304890 | 28.33° C | 61% | 1016.2 hPa | 0 mm | - | - | - |
| 1777304726 | 28.33° C | 61% | 1016.2 hPa | 0 mm | - | - | - |
| 1777304519 | 28.33° C | 62% | 1016.2 hPa | 0 mm | - | - | - |
| 1777304426 | 28.33° C | 62% | 1016.2 hPa | 0 mm | - | - | - |
| 1777304308 | 27.78° C | 63% | 1016.2 hPa | 0 mm | - | - | - |
| 1777304126 | 27.78° C | 63% | 1016.2 hPa | 0 mm | - | - | - |
| 1777303906 | 27.78° C | 63% | 1016.2 hPa | 0 mm | - | - | - |
* Rain latest hour (hover to see other rain measurements)
** Current wind speed in m/s (hover to see current wind gust speed)